Theta_e
313 312 311 311 314 318 319 318 319 321 320 321 322 320 318 321 323 319 320 320 317 332 344 344 343 341 345 351 351 348 346 350 352 348 350 351 345 344 344 341 336 334 334 333 333 335 336 337 338 338 338 337 334 331 331 331 331 331 331 329 327 326 322 318 318 317 319 319 318 320 323 324 325 332 332 323 320 324 326 320 317 317 317 316 316 316 318 316 312 311 311 313 316 318 321 324 325
313 312 312 313 316 319 319 318 321 322 319 318 318 320 320 320 322 319 320 318 320 341 347 345 345 344 345 345 346 347 347 347 347 347 349 348 346 345 344 341 335 332 332 331 333 334 336 337 338 338 338 337 334 331 331 332 331 332 332 330 327 326 324 319 317 317 318 317 317 318 319 320 320 325 326 324 326 331 330 324 320 321 320 317 315 316 316 315 312 312 315 317 321 324 326 328 329
312 312 314 316 318 319 319 318 320 321 319 316 315 318 317 317 319 318 319 316 324 345 347 344 347 346 345 350 352 351 350 346 345 347 347 348 347 345 343 338 333 333 332 331 333 334 336 337 337 338 337 337 335 331 331 332 332 333 333 331 329 326 325 321 317 317 317 317 317 318 321 323 322 321 321 321 324 328 327 325 325 323 320 317 315 315 315 314 314 315 318 321 325 328 329 330 330
311 314 317 319 319 319 323 323 324 321 319 318 315 319 318 316 318 318 318 316 322 336 345 346 348 347 347 353 353 349 348 346 347 347 348 349 348 345 341 335 332 332 331 331 332 333 336 336 337 337 337 337 335 332 331 331 332 332 333 333 330 326 326 322 317 316 317 318 316 321 326 326 324 323 322 321 321 323 323 324 325 321 318 317 315 314 314 314 316 319 322 325 327 329 330 331 331
312 316 319 321 319 319 323 323 325 321 318 320 318 320 322 319 319 320 319 321 322 327 341 347 349 348 347 351 348 348 348 347 347 348 348 349 349 344 337 332 332 332 331 331 332 333 335 336 337 337 337 337 335 333 331 331 332 332 333 333 332 327 324 322 318 316 318 320 319 323 327 326 325 325 325 325 324 323 323 323 322 320 318 318 317 313 314 315 317 321 325 328 328 330 332 332 333
315 318 320 322 319 318 320 320 323 321 318 320 320 321 322 320 320 321 320 322 328 333 342 347 347 348 348 350 347 347 348 347 348 348 349 349 349 343 334 332 333 332 333 331 331 332 334 336 337 337 337 337 336 334 331 330 331 332 334 334 333 328 323 322 319 317 318 320 322 325 327 327 328 329 329 330 330 329 328 326 323 320 318 318 318 314 313 315 318 321 325 328 331 332 332 333 334
317 320 321 321 320 317 321 322 322 321 320 320 320 321 320 320 320 320 320 319 332 343 345 346 347 350 350 349 348 348 347 347 347 349 349 349 347 341 334 333 333 333 333 332 331 331 333 336 336 337 337 337 337 334 331 329 331 332 334 334 334 329 322 320 319 319 320 321 322 324 326 327 329 329 328 328 330 330 329 327 323 319 317 317 319 315 313 315 318 322 325 329 331 332 332 333 333
318 319 318 320 321 317 320 323 320 318 320 320 319 320 319 320 320 320 321 318 326 341 346 346 346 353 352 348 350 349 347 348 347 349 349 347 343 338 335 334 334 335 333 332 331 331 333 335 336 337 337 337 337 336 332 329 331 333 334 334 335 330 320 318 319 320 322 324 325 325 326 326 326 325 325 325 326 326 324 322 320 318 317 316 318 316 313 315 316 321 326 329 331 332 332 332 332
318 317 315 317 319 316 318 319 317 317 318 319 317 318 318 319 319 319 321 319 319 333 346 347 345 352 353 349 349 349 348 348 348 349 347 345 342 338 336 335 336 335 333 332 331 331 331 333 335 337 337 337 337 336 333 329 330 332 334 334 336 331 320 317 320 320 323 328 330 328 327 325 324 323 323 323 322 322 321 320 319 318 317 316 317 317 314 314 316 320 325 329 331 330 330 331 333
317 315 315 317 318 317 318 316 315 316 315 316 315 315 316 316 316 316 317 317 318 336 346 345 345 350 351 349 349 348 348 348 348 348 347 345 343 338 336 335 336 335 333 332 330 330 330 332 335 336 337 337 337 337 334 331 330 332 333 334 336 329 319 318 320 322 324 327 329 328 327 326 325 324 323 322 321 321 320 319 320 319 318 317 316 318 316 314 316 320 324 327 329 329 330 332 333
315 313 314 318 319 318 318 317 316 316 314 314 315 315 316 316 315 314 316 316 326 344 347 346 348 349 349 350 348 348 348 348 349 348 346 344 341 337 335 335 336 335 333 332 329 329 328 330 333 335 337 337 337 337 336 332 330 332 333 335 335 325 318 320 321 323 326 327 328 329 328 329 329 328 327 325 324 323 322 321 321 321 319 318 316 317 317 315 315 319 323 326 328 330 332 334 334
315 314 317 322 322 320 319 318 318 318 316 316 316 316 317 316 315 316 314 318 336 347 345 346 349 349 350 349 347 348 349 348 349 347 345 342 339 335 335 336 336 335 333 331 329 327 326 328 331 335 337 337 337 337 337 333 331 332 333 336 331 320 319 323 324 325 328 330 330 330 331 331 331 332 331 330 328 327 326 325 325 324 322 320 318 317 318 316 316 317 321 326 329 332 333 334 334
315 315 319 321 321 322 319 317 319 319 317 317 316 316 316 314 314 314 315 326 341 346 345 345 347 348 349 349 347 346 348 348 347 345 343 339 336 335 335 336 336 335 333 331 329 325 325 326 329 335 337 338 338 337 337 333 331 332 334 336 327 318 322 326 327 329 331 332 332 332 333 332 331 331 333 332 331 329 327 327 327 325 322 320 318 318 318 318 317 316 320 324 329 333 334 333 334
315 314 317 318 318 320 317 316 317 317 316 316 315 315 315 316 319 316 327 342 344 342 344 345 346 348 350 349 348 345 347 348 344 342 339 336 334 335 336 336 336 335 333 332 328 325 323 325 329 334 337 338 338 337 336 333 332 332 335 335 323 319 326 329 330 332 332 333 333 334 334 333 330 329 331 331 330 327 325 323 322 320 318 317 316 317 318 319 318 317 318 320 327 333 334 333 334
315 313 316 317 318 318 315 316 316 314 315 316 314 314 314 320 330 329 336 351 348 343 345 346 345 349 352 350 348 346 346 345 343 340 336 334 334 336 336 336 335 334 333 330 327 325 324 325 330 334 336 337 337 337 335 333 331 334 336 332 320 322 329 331 332 332 333 333 333 333 333 332 329 328 329 329 328 324 321 319 319 317 317 317 316 317 317 317 318 318 317 317 323 331 334 333 334
314 314 315 315 317 317 315 316 315 315 316 316 314 315 314 317 333 339 338 344 347 345 345 346 344 345 349 349 349 347 346 345 343 339 335 334 334 335 336 335 335 334 332 329 327 326 325 328 332 334 336 337 337 337 335 332 333 335 334 326 319 325 331 332 333 332 334 333 333 332 331 331 330 328 326 327 327 323 320 320 320 319 319 319 319 318 317 317 317 318 317 317 319 327 333 333 334
315 314 315 315 316 316 316 317 316 317 317 315 314 314 314 315 333 344 341 343 346 345 343 345 344 342 345 349 349 347 346 345 343 339 336 335 335 335 336 335 335 334 331 330 329 328 327 329 331 333 335 337 337 335 334 333 334 335 330 321 321 328 332 333 333 333 333 333 332 332 331 331 330 327 326 327 328 324 321 321 321 320 320 320 320 319 319 318 317 317 317 317 317 321 328 333 334
316 315 315 315 315 314 316 318 316 316 316 314 314 313 314 318 332 341 344 346 346 346 345 345 345 344 347 349 348 347 345 344 343 341 339 339 338 336 335 335 335 334 332 330 330 329 329 330 331 333 335 336 336 335 333 333 335 334 325 320 326 331 334 334 333 333 333 332 331 330 330 329 328 327 327 327 328 324 321 321 321 321 321 321 321 320 319 319 319 318 317 316 316 317 322 330 334
317 315 314 315 315 313 313 315 314 314 315 314 313 314 313 317 324 333 346 348 347 351 348 346 348 348 349 349 349 348 345 344 344 343 342 343 341 338 336 336 335 335 333 332 330 330 330 330 330 331 334 335 335 334 333 334 336 331 322 323 330 332 334 334 333 332 331 330 328 328 328 328 328 327 327 327 326 325 322 322 322 322 321 322 321 320 320 319 320 319 317 316 316 316 318 326 330
317 316 315 314 313 312 312 312 313 313 314 313 313 313 314 315 317 332 347 347 347 352 349 347 349 349 350 349 349 348 345 345 344 344 344 344 343 340 338 336 335 335 333 333 331 330 330 330 330 332 333 334 334 333 333 335 334 326 321 327 332 332 333 333 332 331 329 327 326 326 327 328 327 327 328 328 326 325 324 323 323 322 322 322 321 320 319 319 320 319 318 316 316 316 316 321 326
316 316 317 315 311 312 313 313 313 314 314 313 313 313 315 314 321 337 345 348 350 348 346 346 347 349 349 349 348 347 346 344 342 343 344 343 341 337 336 335 335 335 334 334 332 331 331 330 332 333 332 332 333 333 333 334 332 323 322 329 332 332 333 332 331 329 327 325 325 326 326 327 326 326 329 329 326 326 324 324 323 322 322 321 320 321 320 319 319 318 318 317 317 316 316 318 321
315 315 315 313 312 312 313 314 314 314 314 314 312 314 315 314 324 341 343 349 352 344 343 340 341 346 348 349 347 346 345 341 340 343 343 341 339 334 333 335 335 335 335 334 333 332 332 331 333 333 332 332 332 332 333 333 329 322 324 330 332 332 332 332 330 327 325 324 325 326 326 326 326 326 327 328 326 326 325 324 323 323 322 321 321 321 321 321 319 319 319 319 318 318 320 322 323
317 317 314 313 313 312 313 314 314 314 313 313 313 314 315 314 319 333 339 341 340 336 340 341 342 346 347 348 347 346 343 340 341 343 344 341 339 336 334 336 336 335 335 335 334 334 333 332 333 332 331 331 332 332 331 330 326 322 325 330 332 332 332 331 330 326 324 323 325 327 327 326 326 326 326 326 327 327 327 326 326 326 325 325 324 323 323 322 321 321 321 320 319 320 323 326 327
317 317 315 315 314 313 314 315 315 314 313 312 314 313 314 314 312 323 333 330 328 334 340 344 347 348 348 348 347 345 343 341 340 342 344 341 339 339 337 337 336 335 335 335 335 335 334 334 334 332 331 332 332 331 329 328 325 322 326 330 331 332 332 331 329 325 323 323 325 328 328 326 327 326 325 327 327 328 328 328 328 329 328 328 328 327 326 325 325 324 323 322 322 323 325 326 327
315 316 314 315 315 314 315 315 314 314 313 313 313 313 313 315 313 319 329 329 331 336 340 346 349 349 349 349 346 344 343 341 341 342 343 340 340 341 339 338 337 336 336 336 336 335 335 335 335 334 332 332 332 332 329 327 325 323 326 329 331 332 331 330 328 324 322 323 326 328 327 325 326 325 326 327 328 327 326 327 328 328 328 328 328 329 328 327 327 326 326 326 326 327 327 327 327
315 314 314 313 314 314 314 313 313 313 313 313 313 314 314 315 314 318 328 336 340 340 342 347 349 349 348 348 346 345 344 340 340 342 342 341 341 341 341 340 338 338 337 337 336 335 335 335 335 335 334 333 333 333 330 328 326 324 326 329 331 332 330 329 327 324 322 323 326 328 326 325 324 324 325 327 327 327 325 325 326 326 327 327 327 328 328 328 328 327 327 327 327 328 328 328 328
314 313 313 312 312 312 312 312 312 312 312 313 313 315 315 315 314 316 329 341 344 344 346 348 348 349 348 347 347 347 344 340 339 341 341 341 342 342 341 340 340 339 338 337 336 336 336 336 335 334 334 334 334 333 331 330 328 326 327 330 332 331 330 328 326 324 323 323 325 326 325 324 325 324 326 326 325 325 325 324 325 325 325 327 327 327 327 328 328 327 327 327 328 328 329 328 328
314 312 311 311 311 311 311 310 311 312 312 313 313 314 314 314 314 315 330 344 345 345 348 349 348 348 347 346 347 347 346 341 340 341 340 338 339 341 342 341 340 340 339 337 337 337 336 336 336 335 334 334 334 333 332 331 330 328 329 331 332 330 329 328 326 324 323 323 324 325 325 325 326 326 326 326 325 325 324 324 326 326 326 327 326 327 328 328 328 327 326 327 328 328 328 328 328
312 312 312 313 312 311 311 311 311 312 313 315 313 314 314 314 316 315 330 344 346 345 348 349 348 347 346 345 346 347 347 343 341 342 340 336 333 336 341 342 341 341 339 337 338 337 337 336 335 335 335 334 335 333 332 332 331 331 330 332 331 329 329 326 324 324 324 324 325 325 326 327 327 327 327 326 325 325 325 325 326 326 326 326 327 328 328 328 328 327 326 326 327 329 328 328 328
313 312 312 312 313 315 312 311 312 312 313 315 313 314 318 318 316 314 328 343 348 346 348 348 347 347 345 344 345 346 346 343 342 342 341 339 333 335 341 342 341 340 339 338 338 338 337 336 334 334 334 335 335 333 333 333 332 332 331 331 329 328 328 326 324 325 324 325 326 326 327 328 328 328 327 327 326 326 325 324 325 326 326 326 327 328 327 326 327 327 326 325 326 327 327 327 328
313 312 313 313 312 316 314 310 312 314 314 315 313 314 319 319 317 314 324 340 347 346 348 348 347 347 344 344 344 345 345 344 342 342 342 340 337 338 341 342 340 340 339 338 339 338 336 335 333 332 333 334 335 333 333 333 332 331 330 328 328 327 327 326 324 325 325 325 327 328 328 328 328 328 328 327 327 326 327 325 325 326 326 326 326 327 327 326 326 327 325 325 326 326 327 327 327
316 312 316 317 312 315 316 311 312 314 314 314 312 315 317 317 318 315 320 336 347 345 347 348 346 346 344 343 344 344 345 343 342 342 342 342 341 341 341 341 340 340 339 337 338 336 335 334 332 331 331 333 333 334 333 331 331 330 328 327 327 327 327 326 325 326 326 326 328 329 329 328 328 328 328 328 328 328 328 327 326 326 327 327 327 327 326 326 326 325 324 325 326 325 326 326 327
320 313 316 319 313 314 316 312 311 312 313 313 313 316 317 316 317 315 316 331 344 344 345 347 346 346 344 343 342 343 343 340 341 343 343 343 342 342 341 340 340 339 338 337 335 333 332 332 331 331 330 331 332 331 330 329 330 329 328 328 328 326 326 325 325 326 326 326 328 328 329 329 329 329 329 329 329 329 328 328 328 327 327 327 327 326 326 326 326 324 324 326 326 327 326 326 327
318 314 315 318 315 315 315 314 313 311 313 314 313 315 317 317 316 313 313 326 338 340 343 345 346 345 344 343 341 341 342 340 342 342 343 343 342 342 341 340 339 339 338 336 332 331 331 331 331 331 331 330 329 328 329 329 330 329 328 329 329 326 325 326 326 326 327 327 328 329 328 329 330 329 328 329 329 329 329 329 328 328 327 327 326 327 327 326 326 325 326 326 327 327 327 327 327
314 313 315 318 317 315 314 314 314 312 313 314 314 314 316 316 315 312 311 321 333 335 340 344 344 344 343 342 341 341 341 340 342 342 343 343 342 342 340 340 339 338 338 335 332 331 332 331 331 332 330 329 328 328 329 330 329 329 329 330 328 326 326 327 327 328 328 329 329 329 329 330 330 329 329 329 329 329 329 329 328 327 327 327 327 327 327 327 325 325 326 326 326 328 327 327 327
313 312 314 316 315 314 313 313 313 313 313 314 314 314 315 315 314 313 310 317 328 331 336 342 343 343 343 343 341 340 339 340 341 340 341 340 341 341 340 339 339 338 336 334 332 332 331 330 330 331 330 329 328 329 329 330 329 330 330 329 327 327 328 328 328 329 330 330 329 329 329 330 330 329 328 329 329 329 329 329 328 328 328 328 327 327 327 327 326 326 326 326 327 327 327 328 327
312 312 313 313 312 312 311 312 313 313 314 316 316 315 315 314 314 315 310 314 324 327 330 339 342 341 342 342 342 340 338 339 340 339 338 339 340 341 340 339 338 337 335 333 331 332 332 329 330 330 329 329 328 329 330 330 329 330 329 329 327 328 328 328 329 330 330 329 328 328 328 329 329 328 328 328 329 329 329 329 328 329 328 328 327 327 327 327 327 326 325 326 327 327 328 328 328
313 312 313 312 311 311 311 311 313 312 314 318 318 317 316 316 315 314 312 313 319 322 327 335 340 341 341 342 342 340 338 338 338 337 336 337 338 340 339 339 337 334 333 331 330 331 331 330 331 330 329 329 329 329 330 329 329 329 329 329 329 328 328 328 329 329 328 327 327 328 327 328 328 328 327 327 328 328 328 328 328 328 328 328 328 327 326 326 327 327 325 326 328 328 328 329 329
314 313 313 313 311 312 312 314 316 315 316 320 321 319 319 318 317 315 314 312 313 319 326 333 338 340 339 341 341 339 337 337 337 336 335 335 337 339 338 337 336 334 333 331 330 330 331 332 333 331 330 330 329 328 328 328 328 329 329 329 328 328 328 328 328 327 326 326 327 328 327 327 327 327 327 327 327 327 327 327 326 327 327 327 327 327 325 324 326 327 325 325 327 328 329 329 329
316 315 313 313 311 312 314 315 318 318 318 320 319 318 319 318 318 316 313 310 311 316 323 330 335 339 339 340 341 339 337 336 336 335 335 336 337 337 337 336 334 334 333 332 330 330 331 333 333 332 331 331 328 326 327 327 327 329 329 329 328 329 328 327 327 326 325 325 326 327 326 327 327 327 327 327 327 327 326 325 326 326 326 325 326 326 325 323 325 326 325 326 327 328 329 329 329
317 317 315 313 313 313 314 314 316 319 319 319 317 318 322 324 326 322 315 313 313 316 323 329 334 337 338 339 340 338 337 336 335 335 335 337 337 336 337 336 334 334 333 331 331 330 330 331 333 333 332 332 328 326 326 326 328 330 330 330 330 329 328 327 326 327 325 324 326 327 326 327 327 326 326 326 327 327 326 326 326 326 326 325 326 326 325 324 325 326 325 326 327 327 328 328 328
315 318 316 314 314 314 314 314 315 317 319 319 317 318 322 326 329 325 319 318 317 318 325 331 332 336 338 339 339 337 337 336 335 336 336 336 335 335 336 334 333 334 332 330 331 331 329 329 332 333 332 332 329 326 327 328 329 330 330 330 330 327 327 326 325 324 324 324 327 327 326 326 326 326 326 326 326 326 326 326 326 326 326 326 326 326 326 325 326 327 326 326 326 326 327 328 327
313 319 320 315 314 315 315 315 314 318 321 319 318 318 319 322 326 326 320 321 325 326 329 331 331 336 338 338 339 337 337 337 336 336 335 336 335 334 335 332 331 334 332 330 330 331 329 329 332 333 332 332 330 327 329 330 330 330 329 328 326 325 325 325 324 324 324 324 325 326 325 325 324 325 326 326 326 326 326 326 326 326 327 327 326 326 326 326 326 326 326 325 325 325 325 326 327
316 324 323 316 316 316 316 316 316 322 322 319 321 320 317 320 328 326 320 323 331 333 333 333 334 338 339 339 339 338 337 337 337 335 335 336 334 333 331 329 331 333 333 331 330 330 329 329 332 332 332 332 330 329 329 330 330 329 327 326 324 322 322 322 324 325 324 322 323 323 323 322 321 323 324 324 323 323 324 325 325 326 326 326 326 326 326 327 326 326 326 325 325 324 324 324 325
317 320 319 317 316 316 317 317 318 321 318 317 324 320 315 325 334 327 324 330 334 334 334 335 337 338 339 339 338 338 337 337 337 336 337 337 335 333 330 327 330 332 333 332 330 330 328 329 332 331 332 331 329 328 329 329 329 328 326 325 322 321 323 322 321 322 321 320 321 321 320 320 321 322 322 320 317 316 320 322 322 324 325 325 326 326 326 326 326 326 326 325 325 325 324 323 324
315 315 315 316 316 317 317 318 318 317 316 316 322 320 315 327 339 333 331 333 331 332 335 335 338 339 339 338 336 336 336 337 338 337 338 337 334 331 329 327 328 329 330 330 331 331 331 331 332 331 331 331 329 327 327 329 329 328 327 324 321 322 324 323 319 318 319 318 318 319 319 321 323 324 322 320 316 314 317 319 319 320 322 323 324 326 326 326 325 325 325 324 324 325 324 324 324
314 315 315 314 319 322 321 325 322 317 319 319 321 324 318 321 335 334 329 328 327 331 335 335 339 339 337 335 334 335 336 336 336 336 336 334 330 329 328 327 327 327 328 329 330 331 332 332 331 331 331 330 328 326 327 329 328 328 327 325 324 324 325 324 319 316 316 314 314 316 319 322 323 324 323 321 319 316 316 318 319 318 317 319 320 322 325 326 325 325 324 324 324 324 325 325 325
313 317 316 314 323 324 322 328 324 316 322 325 324 325 319 320 332 331 327 326 326 330 335 336 339 338 334 334 334 334 334 334 334 335 335 332 330 330 330 328 326 327 329 329 329 331 332 332 330 330 331 329 327 326 328 329 329 329 328 327 327 326 327 324 318 313 312 312 313 313 316 319 319 321 322 321 321 321 319 319 320 320 318 318 318 318 322 325 325 324 323 323 324 324 325 325 325
313 317 318 317 319 319 322 329 324 319 324 324 323 323 320 324 329 328 328 329 328 330 332 336 338 337 334 333 332 332 331 333 335 338 337 332 329 329 329 328 326 329 331 331 331 331 332 331 330 331 331 328 327 328 329 331 331 331 330 329 328 328 328 323 315 313 313 313 312 311 313 315 316 319 321 322 323 324 322 321 321 322 320 319 319 317 319 323 323 323 323 322 323 324 324 324 324
313 316 318 319 318 316 322 327 322 320 321 318 320 319 319 328 330 327 329 330 329 330 331 335 337 336 334 332 331 331 330 333 336 337 335 330 329 330 330 329 329 330 333 333 333 331 331 330 331 332 331 328 328 329 331 332 332 331 330 329 329 329 326 319 314 314 313 313 312 312 315 316 318 320 321 322 323 324 323 322 323 323 322 321 320 318 318 320 321 321 321 321 322 323 323 323 324
314 316 317 318 324 322 321 325 322 319 321 321 323 320 319 330 333 328 329 329 329 331 331 334 335 333 333 330 328 329 329 332 334 332 330 328 329 330 330 330 330 331 332 333 334 332 330 331 332 332 330 329 329 331 331 331 331 330 330 330 330 328 322 316 315 315 312 312 312 314 317 318 319 321 320 320 322 324 324 323 323 323 323 322 321 318 318 318 318 319 318 319 321 322 322 323 323
314 315 315 315 323 324 321 325 323 323 327 323 324 325 324 328 330 326 329 330 329 330 330 330 330 330 331 329 327 329 330 332 332 329 328 328 329 329 329 329 329 330 331 333 334 333 331 331 332 332 331 331 331 331 331 331 331 330 329 329 328 325 320 318 317 314 311 312 313 314 317 320 321 321 320 319 320 322 324 324 323 322 322 322 320 318 317 316 317 316 316 318 320 322 322 323 322
318 315 315 315 317 319 322 321 318 320 325 320 321 329 328 327 328 326 328 330 329 330 329 328 327 327 327 328 328 329 330 330 329 328 328 329 328 328 328 328 328 328 330 332 333 333 332 332 332 332 333 332 332 331 331 330 329 330 328 326 325 323 323 322 317 312 311 312 314 315 318 321 321 322 322 320 318 317 320 323 323 321 321 321 320 318 315 315 316 316 317 318 319 321 322 322 321
320 318 317 316 314 318 327 326 321 321 322 319 323 330 329 328 330 328 328 331 331 330 330 328 327 326 326 328 329 329 328 328 328 328 328 328 327 327 327 327 327 328 329 331 332 333 332 332 332 332 333 332 331 331 330 327 325 327 327 325 325 326 327 323 314 310 312 312 314 317 320 321 322 323 323 321 319 314 313 318 321 320 319 321 322 318 315 315 317 318 319 319 320 321 321 321 322
317 319 318 317 319 323 324 323 324 323 321 321 323 326 327 330 330 328 330 332 331 331 330 329 328 327 327 328 328 329 329 329 329 329 328 327 327 327 326 327 328 328 329 330 332 331 331 332 331 331 332 331 330 330 329 326 325 326 326 326 327 328 327 322 313 310 312 313 315 318 320 322 322 323 323 322 320 313 308 312 316 316 315 319 322 318 314 316 319 320 321 321 321 321 321 321 321
313 316 316 319 328 330 321 319 323 325 324 323 322 324 329 329 326 325 329 330 330 331 331 329 328 328 328 327 328 328 328 328 329 329 328 328 327 327 327 326 327 328 328 329 330 330 331 331 331 331 331 329 328 329 328 325 325 326 326 328 327 327 326 321 314 313 314 314 316 317 320 321 322 322 322 320 316 309 306 308 310 311 314 318 321 319 316 316 319 322 322 322 322 321 321 321 320
316 319 319 318 323 324 319 319 321 324 329 328 324 327 329 326 323 324 328 329 329 329 329 327 327 327 328 327 328 328 328 328 328 328 328 328 327 327 327 327 327 327 328 328 328 328 329 330 330 329 329 327 327 329 328 326 326 327 327 328 327 326 325 319 316 319 319 316 316 317 318 320 320 321 318 313 308 305 305 306 306 309 315 319 322 322 319 317 317 319 322 323 322 319 319 320 320
321 325 322 318 321 323 320 319 320 325 331 329 327 331 328 323 322 324 327 328 327 326 326 325 325 326 326 327 327 327 327 327 328 327 328 328 328 328 328 328 327 327 328 327 326 325 326 327 329 328 326 327 327 327 327 327 327 327 327 327 325 325 323 318 317 321 321 319 318 317 318 319 320 318 312 306 305 305 305 305 305 308 312 316 319 321 321 318 314 315 319 321 322 319 317 318 318
Wind_Speed
9 9 9 10 9 8 6 4 2 2 2 2 3 2 5 5 2 3 7 5 3 4 7 7 4 7 7 7 9 9 8 1 3 3 3 11 26 25 23 26 27 29 29 29 28 27 27 27 26 26 26 26 25 25 24 22 21 19 18 17 16 16 17 17 18 19 20 21 21 22 22 22 21 19 17 16 16 16 15 15 15 14 15 15 14 14 14 17 19 20 20 19 18 17 17 17 17
10 10 9 10 9 6 4 3 1 2 2 4 3 4 5 3 2 7 8 2 2 3 11 18 16 15 12 12 9 6 9 6 0 6 13 24 30 24 23 26 29 30 29 29 29 28 27 27 26 27 27 26 25 25 24 22 21 19 18 16 15 15 16 17 18 19 20 21 21 22 21 21 20 19 18 17 17 17 15 14 14 14 14 15 15 15 17 20 21 21 21 20 18 18 17 17 16
11 10 10 9 6 4 3 2 1 1 1 5 4 4 4 2 6 8 6 4 5 6 9 10 10 10 7 6 5 3 4 4 7 17 21 28 32 29 26 27 30 29 28 29 28 28 27 27 27 27 27 26 25 25 24 22 21 19 18 17 15 15 15 16 18 19 20 20 21 20 20 19 19 18 18 17 17 17 15 14 13 13 13 15 16 16 19 22 22 22 21 20 19 19 18 17 16
11 11 9 7 5 3 3 2 2 3 3 4 4 5 4 4 8 7 7 9 9 11 10 5 5 5 6 6 5 6 4 4 12 21 24 28 31 31 29 30 32 29 29 28 27 28 27 27 27 27 27 26 25 25 23 22 21 20 18 16 15 14 14 15 16 18 20 20 20 19 19 18 18 17 16 16 16 16 15 14 13 13 12 13 16 17 19 22 22 23 22 21 19 19 18 17 16
11 10 8 6 4 1 2 1 2 3 5 4 3 5 4 6 7 6 10 17 17 13 14 10 5 5 10 7 4 6 8 11 15 21 27 30 30 30 31 33 31 29 29 27 27 27 27 27 27 27 27 26 25 24 23 22 21 19 17 16 14 13 14 14 15 17 19 19 18 18 18 17 16 16 15 14 13 14 14 13 12 12 11 12 16 17 19 23 23 23 22 21 20 19 18 17 16
10 9 6 4 2 1 2 1 2 4 5 4 3 6 6 6 6 8 11 17 15 4 9 7 7 8 10 7 7 13 14 14 18 23 28 31 29 30 32 33 31 29 28 27 27 26 27 26 26 27 27 26 25 24 23 22 20 18 16 15 13 12 13 13 14 16 17 18 17 16 16 15 14 14 13 12 12 12 11 11 10 10 10 11 15 17 20 23 23 23 22 21 20 19 18 17 16
10 8 4 2 2 1 2 2 5 5 5 4 4 8 9 9 10 10 8 9 7 2 3 5 13 14 6 5 10 10 8 13 21 24 27 28 29 32 33 33 31 29 28 28 27 26 26 25 26 27 27 26 25 24 22 21 19 18 16 14 13 11 11 12 13 15 16 17 16 16 15 14 14 13 13 12 11 11 10 9 9 9 10 11 15 18 20 23 23 22 21 21 20 19 18 17 15
9 6 3 3 1 2 2 3 5 4 4 5 5 10 13 17 17 10 7 3 1 3 3 9 10 9 2 3 7 6 11 16 20 23 26 28 30 33 33 32 31 30 28 28 27 26 25 25 26 26 26 25 24 23 21 20 19 17 15 13 13 11 11 12 13 14 16 16 15 15 14 13 13 12 11 11 11 10 9 9 9 9 10 11 14 18 21 23 23 22 22 21 20 19 18 17 14
9 4 2 2 1 1 1 3 5 4 5 6 7 13 18 24 21 12 10 5 4 6 12 13 1 4 6 8 8 10 16 18 20 24 26 28 30 31 32 31 30 30 29 27 26 25 25 25 25 25 25 25 24 22 20 20 19 18 15 13 12 10 10 11 12 13 15 16 15 14 13 13 11 10 10 10 11 10 10 10 10 10 10 11 14 19 21 22 23 22 22 21 21 20 18 16 13
7 3 2 2 2 1 4 3 4 4 5 6 8 17 22 25 21 13 12 10 9 8 13 12 2 8 11 9 8 10 16 20 23 25 25 26 28 30 31 30 29 29 28 27 26 25 25 24 24 25 24 24 23 22 20 20 19 18 15 14 12 10 11 12 12 13 14 15 15 14 13 12 11 10 10 10 11 11 11 10 10 11 11 11 13 18 20 21 22 22 22 21 21 20 19 16 13
4 2 3 3 2 1 4 4 5 5 7 5 10 21 25 25 20 14 11 11 8 9 13 9 7 15 14 7 6 11 19 23 22 24 25 26 27 30 31 30 28 27 27 27 26 25 25 24 24 24 24 24 23 22 21 20 20 18 16 14 11 10 11 12 13 13 14 14 14 14 13 13 12 11 11 11 11 11 11 10 10 10 11 10 12 15 18 20 22 21 21 21 21 20 19 16 13
3 1 4 3 2 3 4 3 5 6 8 5 9 18 20 22 17 8 8 7 5 10 10 11 14 17 11 4 10 18 24 23 21 22 23 26 28 30 30 29 27 25 26 26 25 25 25 25 25 24 25 24 23 22 21 20 20 18 16 13 11 11 12 13 13 14 14 14 14 14 13 12 12 12 12 12 12 12 12 11 12 11 11 10 11 13 16 19 21 21 20 20 21 21 20 17 13
4 2 5 2 3 3 3 3 5 6 7 5 6 14 20 17 14 10 8 4 9 8 6 13 22 17 8 7 18 25 26 23 22 22 24 26 30 31 29 28 26 25 25 25 25 25 26 26 26 26 24 24 23 21 20 20 20 18 16 13 12 12 13 13 14 15 14 14 14 14 13 12 12 12 12 12 12 11 11 11 11 11 11 10 10 11 14 17 19 21 21 21 21 21 20 18 14
6 3 4 1 1 2 2 3 5 2 5 7 4 17 23 14 9 9 10 7 4 6 7 19 26 15 10 11 16 27 27 26 25 25 26 28 31 31 29 27 27 26 25 25 26 26 26 26 27 26 24 23 23 21 21 20 20 18 15 13 12 12 13 13 15 15 15 14 14 13 12 12 11 11 11 11 11 10 11 11 10 10 10 10 10 10 12 13 16 19 21 21 21 22 21 19 16
7 2 4 1 2 2 3 4 3 2 5 6 6 18 22 20 10 5 9 6 2 8 14 20 22 9 14 16 15 31 31 29 28 28 30 31 32 30 29 29 28 27 26 26 26 26 26 26 26 26 25 24 24 23 22 21 19 17 14 13 12 13 13 13 14 14 14 14 14 13 12 12 11 11 11 10 10 11 12 12 11 10 10 10 11 11 11 12 13 16 19 20 21 22 22 20 17
5 1 3 1 2 3 3 4 2 2 5 5 12 19 15 20 12 7 2 8 11 14 12 16 16 3 19 23 21 36 34 33 32 31 34 34 34 31 30 30 29 29 27 28 26 26 25 25 26 25 25 25 25 24 22 21 19 16 13 13 13 13 13 13 13 13 13 13 13 12 12 12 12 11 11 11 11 11 11 12 11 11 10 11 11 11 10 10 11 12 15 18 20 21 21 21 19
3 1 2 0 3 4 4 4 3 3 6 7 15 18 10 15 12 9 9 17 18 13 7 12 12 6 22 22 22 38 34 36 35 35 37 35 36 33 32 32 31 30 28 28 26 26 26 26 26 26 26 25 25 24 22 20 18 16 13 14 14 13 13 12 12 12 12 13 12 12 12 12 11 11 12 12 11 11 11 11 11 10 10 10 10 10 10 10 10 10 12 16 19 21 21 21 20
4 2 3 3 4 5 4 6 4 3 6 7 15 18 8 9 10 6 10 14 15 14 11 11 10 8 23 20 26 39 35 39 38 38 38 35 36 35 35 33 32 32 30 29 26 26 25 26 26 26 26 25 25 24 22 21 18 16 14 15 15 14 13 13 13 12 12 12 11 11 11 11 10 10 11 11 10 10 11 10 10 9 9 9 8 9 9 9 9 9 11 13 17 21 22 22 21
7 3 2 5 5 5 4 5 4 4 8 11 18 18 9 9 9 2 2 4 8 12 11 13 16 16 21 23 33 38 37 41 38 38 37 35 36 36 37 35 34 33 31 29 26 26 25 25 25 25 26 26 26 24 23 21 18 17 16 16 16 15 14 13 13 13 12 11 11 11 11 11 10 9 10 10 10 9 10 9 9 8 8 7 7 7 7 8 8 9 10 11 13 19 23 23 22
10 5 2 7 5 5 9 10 10 12 15 12 15 16 12 16 11 2 3 4 3 6 9 12 18 22 24 29 36 38 40 41 37 36 33 33 36 37 38 37 36 33 31 28 26 25 24 25 24 24 25 24 25 24 23 20 18 18 17 17 16 16 15 13 12 12 13 12 11 11 11 11 10 9 10 9 9 8 8 8 7 6 6 6 6 5 5 6 7 8 9 10 12 16 21 23 22
6 8 5 6 3 5 13 14 15 19 20 14 15 16 15 19 10 5 8 6 1 5 16 17 20 29 31 34 37 38 38 33 32 33 29 28 30 33 35 35 34 31 29 27 26 26 25 25 24 23 23 23 23 23 22 20 19 19 18 17 17 16 15 13 12 12 13 12 12 11 11 10 9 9 9 9 8 7 6 6 6 5 5 5 6 6 6 6 6 8 9 11 12 15 18 21 22
1 6 10 10 3 6 15 16 17 20 21 18 13 11 14 14 5 11 13 6 5 12 20 22 24 33 37 36 36 35 30 24 25 29 29 23 22 27 30 32 32 29 28 26 26 26 25 25 22 22 22 22 21 21 20 19 19 19 18 18 17 16 15 13 12 12 13 13 12 11 10 9 8 8 8 9 8 8 7 6 6 5 5 6 7 7 7 6 7 8 9 11 13 15 17 19 21
3 5 10 13 10 8 15 20 21 23 19 15 13 14 16 12 5 12 15 8 9 13 20 23 24 32 38 37 36 34 29 25 25 30 31 25 21 23 27 30 30 29 27 25 26 25 24 24 22 21 21 21 20 19 19 19 19 19 19 18 17 16 14 13 12 13 14 13 12 11 10 8 8 8 8 8 9 9 9 8 8 7 7 7 7 8 7 8 8 9 10 11 12 15 17 17 19
5 5 7 13 15 13 20 24 25 26 20 21 24 19 17 13 8 8 14 14 12 10 17 23 25 31 36 36 34 32 27 24 27 29 28 24 20 21 26 28 27 28 26 25 25 24 24 23 21 21 20 20 19 19 19 19 20 19 19 18 17 15 13 13 13 14 15 14 12 10 9 8 8 7 7 7 8 9 8 9 9 8 8 7 6 7 7 8 9 9 9 10 12 14 15 15 16
6 7 8 11 15 17 23 23 23 26 23 27 25 14 18 22 9 4 11 15 12 12 19 25 28 31 34 34 31 29 25 24 29 29 25 23 21 22 26 26 26 26 25 24 24 24 23 22 21 20 20 20 18 19 19 19 20 20 19 18 17 15 13 13 13 14 15 13 11 10 8 7 7 7 7 7 7 7 6 7 8 7 7 7 8 7 7 8 8 9 9 10 11 12 13 13 13
6 10 11 10 13 18 21 19 19 22 21 21 14 9 21 23 6 3 7 10 13 17 23 29 31 32 33 31 30 30 28 28 30 28 26 25 24 25 28 27 26 25 24 24 24 24 23 21 21 19 19 19 19 19 19 19 20 20 19 18 16 14 13 13 13 15 14 12 11 10 8 7 8 8 7 7 6 6 5 5 6 6 7 8 8 8 8 7 7 8 8 10 11 11 11 11 12
9 10 11 11 14 19 18 17 19 20 18 16 9 9 21 17 4 3 5 13 16 20 26 30 33 33 32 30 32 32 29 29 29 28 28 28 27 28 30 30 28 25 25 25 24 24 22 21 20 20 20 19 19 20 19 19 19 19 19 18 16 15 14 13 13 15 14 12 11 10 9 8 9 9 8 7 6 5 5 4 5 6 7 8 8 9 8 7 6 7 8 9 10 10 10 10 11
11 9 9 11 12 14 14 13 17 15 10 15 12 10 17 10 2 5 11 18 20 25 27 29 31 32 32 31 32 35 31 29 28 29 32 29 28 28 28 30 29 26 25 25 24 22 20 20 20 20 21 19 19 20 20 19 19 19 19 18 16 15 14 13 14 15 14 12 11 10 9 8 9 9 8 8 6 5 4 4 5 6 7 8 8 8 8 6 5 6 7 8 8 10 9 10 11
9 5 5 9 8 9 9 9 14 9 4 12 9 5 11 4 5 8 15 24 23 26 28 28 29 29 32 31 32 35 32 30 29 31 32 29 28 27 25 27 27 25 25 24 23 21 20 20 20 21 22 20 19 21 20 19 19 19 19 18 17 16 15 14 14 14 13 12 10 10 9 8 8 8 8 8 6 5 4 4 5 6 7 8 8 8 7 5 5 5 6 6 8 9 8 9 10
6 3 1 5 7 7 6 6 9 7 5 10 6 2 8 5 12 13 15 27 25 24 27 29 28 29 31 30 30 33 33 32 32 32 32 31 30 27 26 27 26 25 24 25 24 21 21 21 22 22 22 22 21 21 21 19 19 19 19 18 17 16 15 14 14 13 13 11 10 10 9 9 8 8 8 8 7 5 4 4 4 5 6 7 8 8 7 5 5 6 6 6 7 8 7 8 9
3 3 2 2 2 5 6 5 3 3 4 8 9 3 8 7 14 17 16 28 28 24 25 27 28 30 31 29 30 32 33 34 33 33 33 31 30 27 28 28 27 26 25 25 25 22 22 23 23 23 23 23 23 23 21 20 20 20 19 18 17 17 15 14 14 13 12 11 10 9 9 9 9 8 8 8 7 6 5 5 5 5 5 6 7 8 7 6 5 6 6 7 7 7 7 7 8
3 2 5 3 2 5 8 7 3 5 5 5 9 3 6 6 13 19 16 27 30 25 25 27 28 30 31 30 30 32 33 33 33 33 32 30 29 28 29 29 28 27 25 25 25 23 24 24 23 23 23 24 24 23 21 20 20 19 18 17 16 16 15 14 14 13 12 11 10 9 9 10 10 9 8 7 7 7 7 6 6 5 4 5 6 7 7 6 6 6 7 7 6 6 7 7 7
3 1 5 4 3 4 6 6 3 6 4 1 4 4 4 5 12 17 14 27 29 24 24 27 27 30 33 31 30 33 33 33 33 33 33 32 30 29 30 29 27 27 25 25 25 25 26 25 25 24 23 23 23 22 21 20 20 18 18 17 16 15 14 13 13 12 12 11 10 9 10 10 9 9 7 7 8 8 8 8 7 6 5 5 5 6 7 7 6 5 6 7 6 5 7 7 7
4 2 2 3 4 4 4 5 5 0 2 2 3 3 6 6 10 16 11 26 27 21 24 26 27 30 33 31 30 33 34 35 34 33 34 33 31 31 31 28 27 27 25 25 26 27 26 26 26 25 23 23 23 23 21 20 19 18 17 17 16 15 14 13 12 11 10 10 10 9 10 10 9 8 8 8 8 7 8 8 7 6 5 5 5 5 6 7 7 6 5 7 8 6 6 7 8
1 1 1 3 3 4 5 4 4 5 2 3 4 3 9 9 11 16 11 23 25 21 26 28 28 31 33 31 31 33 35 36 35 34 34 33 32 32 31 27 27 26 25 27 27 27 27 27 26 25 24 24 23 22 20 20 20 19 18 18 17 16 15 13 11 10 9 10 10 9 9 9 9 8 8 8 8 7 7 8 7 6 5 5 5 6 6 7 7 7 6 7 9 8 6 7 8
2 1 3 3 4 6 7 5 4 6 6 5 6 6 9 10 11 14 9 21 26 22 24 25 25 29 32 31 32 33 33 34 34 34 32 32 33 32 30 28 27 25 26 28 28 27 28 27 27 26 25 25 24 23 21 21 21 21 20 19 18 17 15 13 11 10 9 9 9 8 8 8 8 8 7 8 7 7 8 8 8 7 7 6 6 6 7 8 7 8 8 7 8 10 8 8 9
2 3 3 4 4 8 9 5 4 4 4 6 7 6 9 11 12 14 8 17 20 18 17 19 23 26 30 33 33 32 30 31 32 31 30 30 31 30 28 27 25 25 27 28 27 27 27 26 28 27 26 25 24 23 22 22 22 22 22 21 19 16 14 13 11 10 9 8 7 6 7 7 7 7 6 7 7 8 8 8 8 8 7 7 6 6 7 8 8 9 10 8 8 9 10 10 10
2 3 5 6 5 8 9 5 6 5 1 5 7 5 9 12 13 14 7 12 13 18 18 19 25 28 30 34 33 29 26 26 27 28 27 26 28 29 27 26 25 25 28 28 27 27 27 27 27 26 25 25 23 22 22 22 22 22 21 19 17 15 14 12 10 9 9 8 7 7 6 6 6 6 6 6 7 7 7 7 6 6 7 7 7 7 8 8 10 10 10 9 9 9 10 11 12
3 2 2 5 4 6 8 5 5 3 2 4 7 5 10 14 13 13 9 8 13 26 30 29 32 30 29 33 32 27 25 24 26 26 25 24 28 29 27 26 26 27 28 28 28 28 28 28 25 25 24 24 23 22 22 21 21 20 17 15 14 14 13 11 10 9 9 8 8 8 7 6 6 6 5 5 5 6 6 5 5 6 7 7 7 7 8 9 10 11 10 9 9 10 11 11 12
3 3 2 5 3 2 5 4 4 3 2 6 8 6 8 11 10 10 8 7 12 26 34 35 37 36 35 36 33 29 27 28 29 28 27 29 31 30 29 28 26 27 28 27 30 31 29 26 24 24 23 23 23 22 21 20 19 18 15 14 13 13 13 12 11 11 10 9 9 8 8 7 7 6 5 5 5 6 7 6 5 6 6 7 7 7 7 8 10 11 11 9 9 10 11 11 12
3 5 6 5 4 4 7 5 5 5 4 5 3 5 6 6 7 8 4 4 10 19 24 24 28 32 31 29 27 27 28 32 34 32 32 33 31 28 29 26 24 28 29 28 33 33 28 26 25 25 24 23 23 23 21 20 19 18 16 16 15 15 15 14 13 12 11 9 9 9 8 8 8 7 6 6 6 7 7 6 6 6 6 7 7 7 8 8 9 10 11 10 10 10 9 10 11
4 6 9 9 8 9 10 7 5 5 5 4 2 3 6 6 5 8 5 4 5 10 14 16 20 21 20 22 24 25 28 32 35 35 34 32 29 27 26 23 24 30 29 29 34 32 26 26 27 27 25 24 24 23 21 20 19 19 18 18 18 18 17 15 14 12 10 9 8 9 9 9 8 7 7 7 7 7 7 7 7 7 6 6 7 9 9 8 9 10 10 10 10 11 10 10 11
5 6 10 12 11 10 10 7 1 1 5 4 3 3 5 7 5 7 6 5 5 2 7 11 17 20 21 25 27 28 30 33 34 35 35 35 31 27 26 25 29 32 29 31 35 32 27 26 28 27 25 24 24 23 22 20 20 20 19 18 17 17 16 15 13 10 8 8 9 10 10 9 8 7 7 7 7 6 7 7 8 8 7 7 8 8 8 9 10 10 10 10 10 11 11 11 11
5 6 8 9 9 9 9 6 5 4 4 3 3 4 3 5 5 6 6 6 8 6 4 6 13 21 23 26 28 30 34 36 36 35 36 37 31 26 27 27 30 32 31 33 36 33 28 25 27 27 25 25 24 23 23 21 21 21 19 18 17 16 14 13 11 10 9 9 10 10 9 9 9 9 8 7 6 6 6 7 8 8 8 8 8 7 8 9 9 10 11 11 11 11 11 10 10
9 8 8 7 8 8 8 6 5 2 2 5 5 2 2 5 5 6 5 7 7 5 3 5 11 22 25 27 30 33 35 36 36 35 36 35 28 27 28 25 27 32 32 34 35 31 27 26 28 28 26 26 26 24 23 21 22 21 20 19 17 15 13 11 11 11 10 11 11 10 9 8 8 7 6 5 5 7 8 8 8 9 9 8 7 7 7 8 8 9 10 11 12 12 12 11 11
9 6 5 4 3 3 4 5 4 1 1 6 7 1 2 5 5 5 6 6 5 4 1 3 12 24 28 29 33 35 36 36 34 32 32 29 25 27 29 25 26 31 32 32 32 30 29 28 29 29 27 27 27 25 23 22 23 23 22 20 17 15 14 12 11 11 11 10 11 10 9 7 6 5 4 3 4 6 9 9 8 9 9 8 7 7 6 6 7 7 8 9 11 12 13 12 12
3 3 3 3 1 2 1 2 3 3 1 7 8 5 4 3 5 2 2 3 3 3 2 4 12 21 26 30 36 39 39 38 35 32 29 26 23 27 30 27 27 30 32 32 32 32 32 30 29 28 28 28 28 26 24 25 25 24 22 19 16 15 14 13 13 13 12 11 10 9 7 6 5 3 2 1 2 4 7 8 9 8 8 8 8 8 8 6 6 7 7 8 10 12 12 12 13
3 3 2 3 3 3 4 4 3 2 5 8 7 5 6 3 4 3 5 6 5 7 7 10 15 17 24 32 38 41 41 41 39 33 29 27 25 28 31 30 29 31 33 33 32 32 31 30 29 28 29 29 29 27 27 27 26 24 21 18 15 14 14 13 14 14 13 11 9 8 7 6 5 4 3 2 1 2 3 5 8 8 7 7 6 8 10 8 7 7 7 7 8 9 10 11 11
5 3 4 3 2 2 3 3 0 2 6 6 4 3 4 4 4 5 9 7 1 5 5 9 15 19 25 31 36 41 43 42 39 32 29 27 26 29 31 31 30 31 33 34 33 31 31 30 29 29 30 30 29 28 29 27 24 22 21 18 16 15 13 12 13 14 12 10 9 8 7 5 4 4 4 3 3 2 1 2 5 7 7 5 3 6 10 9 8 8 8 8 8 8 8 9 9
6 5 4 4 2 1 2 4 1 3 5 4 3 1 1 3 3 5 8 6 4 3 3 5 11 18 22 24 27 33 35 36 33 29 27 26 26 29 32 32 31 31 31 34 34 32 31 31 31 31 32 31 30 30 29 25 22 21 20 18 17 15 13 12 13 13 11 10 9 8 6 4 3 4 5 5 4 4 2 2 4 6 6 4 2 5 9 10 9 8 8 8 8 8 8 9 10
5 5 6 5 4 4 3 4 3 4 3 3 4 0 0 2 3 7 5 5 8 8 7 7 9 14 20 20 15 14 17 23 25 24 23 21 21 26 29 31 29 28 29 30 32 32 31 31 32 33 33 33 32 31 28 24 21 20 19 18 16 14 12 12 13 12 11 10 9 8 5 3 3 3 3 5 5 5 5 4 4 6 6 6 5 6 9 10 10 9 8 8 8 10 10 10 10
3 2 5 3 4 6 2 3 5 3 1 3 3 1 1 2 3 7 5 5 8 10 11 12 9 6 16 22 17 14 15 23 25 25 23 18 17 20 22 24 24 25 27 28 29 31 32 32 34 35 34 34 33 30 27 24 22 21 20 18 16 15 13 13 13 12 12 11 9 7 5 4 4 2 1 3 5 6 7 6 6 7 7 7 7 7 9 11 12 10 8 8 8 10 10 10 10
1 2 3 3 5 7 3 2 1 1 1 1 1 1 3 2 3 6 5 4 5 7 8 13 14 11 8 14 19 21 24 25 24 25 24 18 16 17 17 19 19 20 25 27 28 31 33 34 35 34 34 33 32 31 29 27 25 21 20 19 17 15 12 11 12 13 13 12 9 7 5 5 4 2 2 3 4 6 7 8 8 8 8 9 8 7 7 10 12 11 10 9 9 9 11 11 11
4 2 5 3 3 5 3 1 2 3 1 2 1 2 2 1 1 4 3 2 2 2 3 9 14 11 6 5 11 16 19 21 19 20 21 18 16 15 15 17 16 18 22 25 28 30 30 33 34 33 32 30 30 32 30 26 24 22 21 20 17 14 11 11 13 15 15 13 10 7 5 4 3 3 4 4 4 4 7 10 10 9 9 10 9 6 6 9 12 11 11 11 10 10 12 13 12
4 4 3 3 2 1 1 2 1 1 2 2 2 1 2 2 2 3 3 3 3 2 1 4 11 13 8 4 7 9 13 17 16 14 14 14 14 13 14 16 15 16 19 22 27 28 25 26 29 30 29 25 22 26 27 23 24 24 22 21 18 15 12 12 14 16 16 13 9 6 4 4 4 4 5 6 6 5 6 10 11 10 10 11 11 7 6 9 11 11 11 12 11 12 13 14 13
3 3 1 2 3 4 2 2 3 3 3 1 0 1 2 4 2 3 4 3 2 2 2 1 4 10 11 8 7 7 8 10 11 9 9 9 9 8 9 12 12 12 15 19 23 25 21 19 21 23 25 24 20 21 24 24 24 24 22 21 19 16 13 12 15 16 15 11 7 5 4 3 5 5 6 7 7 5 5 9 9 9 9 10 11 9 7 8 9 10 11 11 11 11 12 13 13
2 2 1 2 1 3 1 0 1 4 4 3 3 1 4 3 2 3 2 1 2 3 2 4 8 7 7 9 10 11 11 9 7 6 6 6 6 6 6 8 10 9 10 12 15 18 18 17 16 14 16 22 23 21 23 24 23 22 21 20 19 17 13 13 15 15 12 10 7 5 5 4 5 6 6 5 4 5 7 8 8 8 9 10 10 10 9 8 8 9 11 12 11 9 10 11 11
5 3 2 1 2 3 3 2 2 2 4 4 5 3 4 3 2 3 1 3 1 4 3 5 9 9 7 10 13 15 15 14 12 9 9 8 8 7 7 7 8 7 6 7 8 10 14 16 15 11 10 17 22 22 23 23 23 22 22 22 22 19 15 13 15 14 11 10 8 6 5 5 5 6 5 4 6 7 8 8 8 8 9 10 11 11 11 9 8 10 12 13 13 11 10 10 10
Wind_Direction
161 144 145 147 147 144 151 138 136 324 68 246 253 235 253 236 238 280 273 284 320 310 30 34 143 140 120 119 126 102 47 60 192 145 164 144 149 152 154 165 169 171 168 165 166 164 167 169 168 168 168 165 161 159 156 153 149 146 143 142 137 133 132 133 140 145 148 149 150 149 149 150 149 144 142 149 147 143 142 145 142 136 134 127 119 113 115 121 122 122 122 123 123 121 116 112 108
155 147 142 146 148 141 174 137 110 327 42 277 258 194 250 284 219 235 244 232 235 206 72 65 85 96 94 95 96 73 35 18 138 125 125 142 152 154 159 168 170 170 167 165 166 164 165 167 167 168 168 165 162 160 157 155 152 148 147 147 142 138 136 135 139 145 148 150 150 148 147 147 148 145 144 147 144 141 140 139 134 132 131 129 121 111 116 126 128 127 126 126 124 120 114 110 106
152 147 142 147 145 134 147 96 76 154 172 256 260 227 250 279 229 242 242 221 234 192 115 77 68 74 85 72 36 53 62 42 119 128 132 151 158 158 167 171 170 169 166 165 165 164 165 166 167 169 169 165 162 161 159 158 154 152 152 150 148 144 141 139 140 145 149 151 151 147 144 144 146 146 147 148 146 144 143 138 132 131 130 130 122 112 121 130 132 130 129 128 125 119 113 109 104
152 145 145 146 138 122 98 81 137 144 208 235 264 257 227 237 249 262 266 282 285 228 188 116 59 77 98 103 92 77 87 122 133 134 140 158 161 159 168 170 169 168 165 164 164 164 165 165 167 170 168 165 164 162 162 161 158 156 155 152 151 148 146 144 143 146 149 151 151 146 142 145 148 146 147 147 147 145 142 139 136 136 135 133 124 117 126 133 134 132 131 130 125 119 115 111 104
153 148 148 141 127 122 82 89 131 158 221 196 244 260 213 228 250 286 303 319 320 250 201 142 112 99 93 90 118 120 134 143 141 143 148 161 163 159 166 169 168 167 164 162 163 164 165 166 167 170 168 166 165 164 165 164 162 158 155 154 153 150 149 147 144 145 147 149 148 145 143 145 146 144 145 145 148 145 140 139 139 136 134 133 124 123 132 135 135 134 133 130 125 121 117 112 107
155 151 145 132 91 78 108 167 224 237 231 180 242 272 248 235 258 304 317 326 333 245 196 168 152 119 92 67 98 129 138 145 151 154 154 161 164 161 165 168 167 165 162 161 163 165 166 166 167 170 169 167 166 166 168 166 163 159 156 157 156 153 150 149 145 143 145 146 144 143 142 141 141 141 143 146 147 141 135 133 134 132 133 134 124 125 135 136 136 135 134 131 127 124 120 114 111
159 154 141 127 53 55 124 206 234 247 249 205 235 276 276 278 286 300 314 328 339 165 217 189 140 115 89 93 106 120 142 152 153 156 156 159 162 162 165 167 167 163 160 160 163 165 165 165 168 170 170 169 168 168 168 166 163 160 158 160 160 155 151 150 146 143 142 142 140 140 138 139 142 144 146 146 143 137 135 134 136 135 137 140 128 128 137 138 137 137 136 133 130 125 122 117 114
160 157 122 109 32 26 110 240 249 234 251 244 248 270 278 284 287 293 290 280 274 270 182 163 134 96 64 115 110 133 153 150 148 154 155 156 160 164 167 168 166 161 158 160 161 164 164 166 169 171 172 171 170 169 167 165 163 162 162 164 163 157 152 150 147 143 139 137 135 135 135 138 141 142 144 142 140 138 137 136 135 133 138 143 133 132 139 141 139 140 139 135 132 128 124 121 119
156 148 111 104 121 21 312 276 270 245 253 269 270 269 272 278 285 290 281 265 232 229 178 180 204 70 117 95 103 147 153 149 147 150 153 155 161 165 168 168 166 160 157 157 159 163 165 167 170 172 174 173 171 168 166 165 165 165 166 167 167 161 152 148 146 143 139 137 135 135 135 135 135 134 136 134 134 134 133 131 129 128 133 138 135 136 141 142 142 142 141 138 134 132 128 126 124
153 141 123 96 117 348 289 272 266 263 263 260 265 269 273 276 280 275 268 280 259 199 174 193 200 120 127 99 107 157 159 154 152 150 155 158 162 167 168 168 166 159 154 154 158 163 166 168 171 173 174 173 172 169 167 166 167 169 170 171 169 162 152 147 147 145 141 140 138 136 133 128 126 127 129 129 129 128 127 126 125 127 129 132 133 137 141 143 144 144 143 141 138 136 134 132 132
150 136 111 83 93 237 251 269 270 272 275 276 280 273 276 275 273 267 256 267 254 155 147 159 133 124 118 101 115 157 158 155 157 152 156 161 164 168 166 165 162 156 151 153 158 163 166 169 171 174 175 175 174 171 168 167 169 172 174 173 168 161 152 149 150 148 144 142 139 133 128 125 124 125 124 123 123 122 120 120 122 124 126 129 131 134 141 145 146 147 147 145 142 140 138 138 139
161 105 90 98 154 198 220 251 269 284 288 292 278 277 290 284 272 255 239 242 183 147 160 156 141 129 109 102 135 152 155 155 159 151 155 163 165 167 164 160 156 153 152 154 158 163 167 169 170 173 176 177 175 172 169 169 172 175 175 172 167 161 154 149 150 149 146 143 138 131 129 128 126 125 122 120 115 114 113 114 116 116 118 122 128 132 139 145 149 151 151 149 145 145 144 144 147
177 136 99 127 191 191 217 229 275 306 298 278 248 294 311 290 265 229 211 181 152 162 204 164 146 129 105 136 147 156 157 156 155 147 154 162 165 164 160 157 153 153 154 156 160 165 168 169 170 171 174 176 174 171 170 171 174 177 175 171 167 162 154 150 150 151 149 145 141 135 134 132 129 127 127 123 116 113 112 114 117 117 118 119 126 131 137 144 150 155 156 155 151 150 150 149 153
179 149 123 182 234 189 218 232 279 300 276 272 273 323 328 319 288 217 162 116 153 172 161 154 146 121 117 139 151 165 161 157 152 146 152 160 163 160 158 156 154 156 157 161 164 167 169 168 169 168 170 174 172 171 172 173 176 177 173 171 168 162 156 153 153 152 151 149 146 141 139 136 130 130 131 130 122 118 116 118 122 122 121 120 123 128 136 143 151 159 161 161 158 157 156 155 157
187 154 110 115 314 277 239 217 238 218 268 283 315 334 339 340 349 126 131 114 89 147 143 151 152 125 154 161 169 175 164 157 152 146 152 158 162 161 160 158 158 160 161 166 167 169 169 167 167 166 169 172 172 171 172 173 175 175 171 171 167 162 160 158 155 151 152 152 151 147 143 140 132 132 136 134 127 122 122 123 122 120 120 118 118 122 129 138 148 158 163 165 165 163 162 159 160
191 177 70 96 261 252 226 216 197 209 270 292 320 336 345 334 350 64 95 144 122 139 143 152 165 162 173 175 177 175 164 156 152 149 155 160 164 164 163 161 162 164 166 169 169 169 169 167 167 166 170 172 172 172 171 172 173 173 171 170 167 165 164 162 158 150 152 153 154 153 148 145 138 138 139 136 131 127 125 123 121 120 120 117 117 120 123 129 139 151 160 165 169 169 166 164 165
186 170 74 241 230 220 217 210 178 200 274 302 323 339 353 329 346 51 99 126 118 131 134 158 196 232 176 181 176 170 163 159 155 154 160 162 165 166 165 165 166 168 170 172 170 169 170 170 169 168 171 172 172 172 171 171 170 173 171 169 168 168 166 163 160 154 156 156 156 155 151 148 143 140 139 139 136 131 128 124 124 124 122 121 120 123 125 129 135 146 153 159 168 173 173 170 170
183 129 140 220 230 226 197 188 207 233 292 314 316 329 356 332 335 45 96 102 97 102 95 137 184 189 173 181 173 168 165 162 161 161 163 162 166 167 167 169 170 172 173 173 172 171 172 172 171 171 171 172 172 172 172 172 172 174 171 170 169 169 167 165 164 162 162 160 158 158 155 151 144 139 138 141 140 136 133 130 131 130 126 125 127 130 133 137 141 150 153 155 163 172 177 174 175
184 128 148 227 220 228 216 214 265 300 294 304 301 312 345 326 317 306 91 64 83 88 79 111 128 142 163 172 169 169 168 166 165 164 163 163 167 169 169 172 173 174 174 174 172 173 175 174 173 173 173 173 174 173 173 174 173 174 173 172 172 171 171 172 171 166 165 166 165 165 162 156 148 142 141 143 144 143 140 138 137 134 134 132 133 137 140 143 145 153 156 158 158 167 176 177 179
195 176 193 239 219 260 273 269 280 289 287 293 295 305 321 315 317 234 168 98 91 114 125 124 130 144 156 163 167 170 169 170 167 161 164 171 172 170 171 173 174 174 173 174 173 173 177 175 174 175 176 175 175 175 174 175 176 176 176 175 176 176 178 180 175 168 169 172 170 170 167 162 157 151 147 146 145 146 145 144 140 138 144 137 130 135 141 146 151 157 157 161 158 162 174 179 182
192 180 214 242 195 270 272 276 282 285 285 280 287 304 308 309 317 186 157 111 330 196 169 164 160 160 159 162 165 166 166 166 161 159 168 175 173 171 172 173 173 174 172 173 175 176 177 177 176 176 178 177 177 178 176 176 180 179 178 178 179 180 184 185 176 172 174 172 172 174 173 163 156 153 147 143 137 140 148 144 142 146 151 139 133 139 146 149 154 159 158 159 158 160 170 177 183
216 212 238 251 232 263 275 285 287 285 286 285 288 298 293 304 319 174 164 143 225 210 189 183 177 169 164 162 159 160 162 156 151 162 171 171 171 171 173 174 174 175 173 175 178 178 178 178 179 178 179 179 179 181 178 181 184 183 182 182 183 184 189 187 179 177 176 174 174 176 173 159 148 146 142 144 141 142 149 147 146 150 147 141 141 144 146 149 151 155 157 157 158 160 165 173 181
244 260 250 258 252 247 278 286 288 287 287 287 280 284 291 304 298 200 192 208 231 214 197 186 176 169 164 159 158 165 167 159 161 173 177 175 173 174 177 177 176 176 176 178 181 181 180 180 182 181 180 180 182 183 183 186 187 186 186 187 189 190 192 188 184 181 179 178 177 176 170 158 150 147 147 156 155 149 150 147 145 145 142 142 146 148 149 149 150 155 158 159 159 160 162 171 179
218 267 261 268 265 257 276 280 283 283 278 278 280 288 293 284 278 222 212 235 251 229 194 177 164 161 160 157 162 166 160 160 173 179 178 176 169 167 177 178 176 178 179 180 182 183 183 183 184 183 183 184 187 188 190 192 191 190 190 192 193 195 194 188 187 186 183 182 178 177 171 162 157 155 159 165 161 153 149 146 145 144 143 145 149 153 158 157 158 161 164 167 163 162 164 169 177
215 246 262 273 274 269 276 278 280 281 278 281 284 285 278 272 264 200 226 237 231 201 181 168 158 158 159 162 165 159 159 175 182 180 174 170 163 159 171 176 177 180 181 182 183 186 185 186 187 186 187 189 193 194 195 196 196 195 194 196 196 196 195 189 191 190 187 184 179 179 176 171 166 164 167 168 167 162 156 151 150 151 152 157 159 160 169 173 173 173 175 176 171 167 168 168 171
217 229 253 266 272 274 278 278 277 280 281 282 284 275 272 276 273 215 223 197 186 176 170 165 159 160 163 167 168 165 175 186 183 178 169 167 165 162 168 173 177 179 181 184 185 187 187 189 190 189 189 191 197 199 199 200 200 199 197 199 199 197 194 191 194 192 190 187 181 183 184 180 175 173 173 174 178 178 174 165 160 162 164 166 168 169 175 180 183 182 181 183 183 178 176 174 171
253 251 262 266 271 276 276 274 274 278 282 275 260 257 270 277 284 254 176 162 171 163 160 163 162 164 167 169 173 179 187 186 180 175 170 172 171 170 171 172 176 178 181 186 186 187 189 190 191 191 191 193 199 202 203 204 204 203 200 200 199 197 195 195 196 194 193 189 186 188 190 188 184 183 183 184 188 190 191 181 175 176 171 169 171 174 175 175 177 183 183 185 191 188 185 182 180
272 283 288 285 285 284 271 264 270 270 279 269 243 243 273 282 246 224 169 165 171 162 158 163 165 168 170 172 179 187 193 190 180 175 177 179 176 177 177 175 176 177 182 186 184 186 189 191 192 192 193 196 200 202 204 206 206 205 202 200 197 197 198 197 198 197 195 191 191 193 195 197 198 197 194 196 198 200 201 191 185 184 176 173 173 173 175 174 172 182 185 185 191 193 190 186 184
284 289 299 300 315 303 263 244 255 242 247 266 240 254 288 279 234 235 166 165 171 163 162 164 169 174 174 175 182 190 195 192 184 181 184 183 182 183 178 176 178 178 182 184 183 186 191 191 189 190 194 198 200 201 203 205 206 205 201 199 197 198 199 199 199 197 194 192 194 197 201 206 209 209 206 207 208 212 212 199 191 186 180 179 181 183 182 179 176 180 183 182 189 193 192 190 190
290 275 273 310 330 308 265 240 245 225 242 248 193 225 282 259 252 247 168 165 166 160 165 167 173 178 178 179 184 190 194 194 191 187 186 184 184 183 177 177 180 181 182 183 185 188 194 194 188 188 192 194 196 198 201 204 204 201 197 197 198 197 198 200 197 193 192 193 197 202 207 213 217 216 215 216 214 220 223 207 196 191 188 187 190 195 197 195 184 180 179 177 184 187 187 191 193
313 294 289 317 292 282 293 306 258 222 265 212 165 200 260 262 258 244 184 168 167 164 169 171 176 181 181 182 185 190 195 198 196 189 188 188 185 181 180 179 180 182 183 185 189 190 192 194 188 187 188 189 192 194 198 200 198 196 194 195 196 197 199 198 195 192 193 196 202 209 215 220 221 221 222 219 217 223 228 222 216 208 199 195 196 199 205 209 196 183 175 170 177 179 176 184 190
359 281 286 316 211 270 305 305 230 223 271 182 160 218 261 265 258 247 199 172 172 170 172 175 179 184 183 183 188 193 196 198 197 192 192 192 186 184 184 182 181 182 183 187 192 191 190 191 188 187 186 185 186 190 193 193 193 192 192 194 195 198 198 195 194 194 197 203 210 216 223 226 226 229 229 222 221 228 233 232 230 224 211 201 198 197 200 205 200 187 174 167 174 177 172 177 182
355 209 255 285 263 301 320 308 252 218 250 231 184 214 262 274 260 259 209 176 177 171 175 179 181 186 185 185 190 194 195 194 196 194 194 194 190 187 186 185 183 181 184 188 189 189 188 187 188 189 185 181 182 185 187 189 191 191 191 194 196 197 196 194 196 198 203 209 217 222 226 228 229 232 230 225 226 227 232 233 230 228 217 208 203 197 193 191 191 184 173 166 166 172 170 173 174
319 0 261 264 254 282 301 302 318 289 186 269 273 222 252 270 267 274 220 180 180 174 178 181 182 187 186 187 191 195 195 193 195 193 193 195 191 188 187 186 185 183 186 189 188 188 188 187 189 189 183 179 180 182 184 187 190 191 193 195 197 197 195 196 199 202 205 209 217 224 226 228 232 234 230 229 228 223 228 229 225 224 218 215 209 198 189 184 183 176 169 167 162 160 167 171 170
174 15 285 287 279 269 266 269 312 351 7 263 309 298 266 274 267 273 237 184 184 183 183 182 183 186 187 189 191 194 194 193 196 195 193 195 191 188 187 187 187 186 188 191 190 190 190 189 190 189 182 179 180 181 183 187 191 194 194 195 197 196 196 198 200 204 206 208 215 222 226 228 230 231 229 229 225 224 230 226 224 224 219 220 209 196 191 185 183 174 167 171 163 156 161 167 168
152 205 192 251 290 278 265 255 269 326 340 289 289 281 270 280 267 271 242 186 189 192 186 182 181 184 187 190 193 195 192 191 195 195 193 193 192 189 188 189 188 188 192 192 191 192 193 191 191 190 183 179 179 181 185 189 192 194 193 193 194 194 195 195 199 207 206 207 212 217 223 224 224 226 228 230 226 226 231 225 223 223 220 221 212 198 194 190 188 178 171 177 173 163 159 163 170
329 302 262 259 271 276 275 274 274 313 335 281 270 264 267 274 265 271 237 178 188 195 183 179 179 182 187 191 195 196 189 189 192 192 189 187 191 191 191 192 189 192 193 190 192 195 195 196 195 191 182 178 178 182 188 192 194 194 192 191 192 192 193 193 198 204 200 199 204 211 218 218 219 222 226 231 225 225 229 225 222 222 218 217 211 198 191 189 186 179 176 177 180 174 162 161 172
285 276 288 287 262 271 280 278 277 284 267 261 277 284 276 268 264 271 232 162 182 194 181 180 184 184 189 192 195 192 185 186 187 185 181 181 188 191 192 192 190 192 190 188 193 195 198 202 198 191 182 178 179 183 189 193 196 196 193 190 189 191 193 193 195 194 191 193 199 204 208 209 210 213 218 222 217 214 215 214 212 210 208 208 205 194 186 187 183 178 181 179 176 179 169 164 170
233 234 280 279 273 294 292 284 285 287 150 265 292 295 276 273 271 273 244 181 188 193 188 188 187 184 188 192 191 184 177 174 173 171 170 178 187 188 191 190 189 191 187 188 195 197 202 205 198 191 184 180 180 185 191 194 197 198 196 192 190 191 191 187 180 179 183 187 191 192 193 198 199 202 207 205 201 196 190 184 178 183 190 191 191 190 185 187 184 177 184 186 178 178 175 172 174
216 197 223 262 284 333 286 291 313 305 251 262 290 301 278 284 292 287 254 194 183 193 195 194 190 187 190 192 188 178 170 161 157 157 166 182 186 186 190 188 187 189 184 187 196 200 205 205 200 194 188 183 183 185 190 195 198 198 194 191 192 191 186 179 171 170 172 174 178 180 182 187 187 190 188 176 173 175 175 168 162 171 177 178 182 188 185 184 185 182 186 190 189 187 182 180 183
230 208 211 245 264 238 239 272 313 315 295 244 283 330 297 298 306 299 293 146 163 185 192 195 192 191 189 185 177 172 166 156 152 157 171 182 184 186 190 187 189 191 186 191 198 200 204 206 203 197 191 187 185 185 190 194 197 197 188 184 188 187 182 177 174 171 166 164 171 176 177 178 178 182 178 168 165 167 174 177 175 176 177 177 182 188 186 181 181 186 191 192 194 198 193 190 191
266 227 207 214 236 242 245 274 322 344 317 259 67 17 298 305 301 291 323 81 141 175 178 182 185 181 171 164 163 164 160 155 157 162 170 176 179 185 188 187 197 197 192 197 201 201 206 206 202 197 192 190 187 187 190 193 196 194 187 186 187 187 185 184 181 176 165 160 170 175 173 172 174 180 179 172 167 169 177 184 181 177 178 176 181 190 189 183 182 188 196 197 196 198 197 198 197
264 235 202 207 221 237 252 264 246 236 268 260 83 102 267 306 319 311 338 54 69 113 164 167 164 157 153 156 158 157 155 158 163 165 170 176 179 187 191 193 201 201 196 200 202 203 207 204 200 197 193 192 190 189 191 192 194 192 189 191 193 193 194 191 185 180 172 167 173 175 171 168 166 168 174 174 172 172 174 179 179 180 183 179 180 188 187 185 189 193 200 202 200 199 199 200 200
247 226 182 195 216 226 237 230 200 223 267 304 39 113 214 289 290 308 344 55 50 42 103 129 141 143 147 153 153 154 156 163 166 167 175 181 182 193 198 195 199 201 200 201 201 201 205 204 201 198 194 193 191 190 192 192 194 193 190 193 197 197 198 193 187 186 185 180 179 180 178 171 162 160 165 174 182 186 182 178 180 183 184 182 179 183 187 189 192 197 204 206 203 201 201 202 204
248 224 170 186 212 215 215 198 204 250 338 308 319 89 186 271 277 316 359 65 40 17 104 124 136 141 146 149 150 153 157 163 168 171 179 185 187 194 194 191 196 200 202 203 200 201 205 204 200 196 193 192 191 191 191 193 194 193 191 194 194 191 192 192 191 192 189 186 185 189 190 179 167 163 161 162 176 190 194 190 188 188 184 179 178 178 182 186 184 191 203 206 203 199 199 203 208
247 213 177 200 201 203 194 168 180 31 25 264 271 170 181 270 291 331 12 53 18 336 39 128 141 145 148 146 147 152 155 161 168 170 175 181 184 183 184 189 195 196 199 201 201 205 207 204 200 196 192 191 191 190 190 193 194 191 192 194 189 183 187 191 193 193 190 188 190 192 190 178 172 168 153 136 149 176 188 190 191 193 186 178 181 185 184 183 180 183 193 197 198 197 197 201 206
219 128 192 238 351 24 58 116 110 80 281 257 250 202 170 263 287 312 5 349 280 240 165 142 146 147 150 147 147 151 156 159 159 158 165 174 175 177 185 191 187 188 195 199 202 207 208 206 202 197 192 190 189 190 192 193 192 189 191 193 188 186 191 195 195 192 188 186 188 190 185 180 183 181 175 152 128 159 175 180 184 188 187 185 188 196 197 191 187 188 189 188 190 193 195 199 203
171 94 158 213 302 2 27 1 53 111 247 261 253 194 148 205 268 303 318 300 240 206 178 161 159 153 149 149 149 152 155 154 151 158 172 178 179 184 190 188 181 185 194 198 200 204 206 206 203 196 191 189 190 191 191 191 189 189 193 195 193 196 201 205 199 190 184 181 184 192 193 196 203 208 222 232 184 148 163 174 180 184 192 192 190 196 195 190 189 191 191 189 188 192 196 197 202
155 127 102 125 286 356 6 307 16 196 242 258 259 168 136 211 244 315 328 332 241 204 210 181 169 158 152 152 153 154 155 154 156 171 185 184 181 185 187 185 184 189 195 197 198 201 203 203 200 195 191 190 191 191 189 189 190 192 197 199 200 205 213 216 202 188 183 182 188 197 200 206 219 224 227 221 206 194 187 187 188 191 196 194 184 187 189 187 185 184 185 189 190 192 191 191 197
157 163 145 142 152 102 294 272 268 265 245 260 277 189 215 268 276 329 338 6 60 140 201 194 164 150 145 147 151 155 157 156 163 181 188 184 180 180 184 188 191 194 197 199 200 200 201 200 197 195 193 192 191 191 190 190 192 194 196 198 201 210 220 218 202 191 187 190 195 201 204 210 231 237 230 221 218 218 222 216 202 202 205 211 212 191 189 189 185 183 181 180 182 182 180 181 186
172 165 142 144 152 149 217 231 220 256 245 297 319 84 213 264 312 330 349 50 63 90 112 124 132 137 137 133 123 118 131 149 170 186 183 177 180 182 186 190 194 198 200 201 203 203 201 198 196 195 194 194 193 193 193 190 190 191 191 196 204 215 219 209 199 196 195 195 197 202 205 206 215 230 232 229 230 232 233 230 214 211 216 226 227 204 195 194 190 189 186 178 175 174 173 177 178
213 144 112 144 181 159 181 202 186 207 199 348 347 53 271 239 293 329 359 61 62 77 86 82 76 108 139 139 130 121 143 164 178 184 177 177 187 186 186 189 196 202 201 200 201 203 201 197 197 197 196 196 194 192 190 187 188 189 190 197 205 208 206 200 198 200 198 195 199 208 208 201 201 193 215 229 232 232 235 236 226 217 216 224 224 204 192 193 192 191 187 180 179 173 170 176 177
192 122 154 205 170 138 136 220 211 86 139 306 355 158 302 325 321 328 358 33 52 75 80 74 58 43 85 129 143 160 176 179 177 178 179 186 191 187 189 190 194 199 200 201 202 202 203 200 199 199 195 193 192 188 185 184 186 189 193 196 197 195 193 197 202 202 197 193 201 214 209 204 207 215 239 242 237 228 227 231 235 229 214 214 220 204 184 188 187 183 178 175 181 179 170 174 180
125 187 206 187 94 93 115 155 14 34 187 260 345 182 259 27 317 305 336 351 342 30 84 95 88 75 59 93 136 160 178 178 177 179 182 187 187 186 189 185 187 194 196 199 201 202 204 202 202 202 197 193 191 188 184 184 184 187 193 191 187 188 194 203 205 199 195 195 204 216 212 213 224 245 265 275 271 245 224 225 233 234 215 206 216 213 183 181 178 174 175 176 180 179 171 171 175
138 179 171 122 111 49 99 145 136 125 187 267 8 22 248 184 206 265 244 231 258 304 320 133 129 133 147 147 131 149 168 175 182 181 178 182 181 185 190 183 181 188 191 196 199 200 204 204 204 205 201 199 197 188 184 186 188 190 191 186 182 187 196 209 205 195 194 198 208 218 217 228 241 252 272 284 289 280 235 220 225 231 215 201 210 214 180 172 174 175 178 179 179 176 172 171 169
73 118 51 42 136 160 180 163 158 154 157 198 108 6 272 221 230 261 235 236 287 287 281 296 117 131 146 147 126 124 144 169 187 185 171 169 164 166 181 184 181 178 185 195 198 200 204 208 211 208 201 202 205 192 185 188 192 192 188 182 182 187 194 205 200 192 195 199 206 223 227 237 246 257 278 288 287 270 219 206 212 221 212 198 203 206 185 170 174 184 187 183 182 181 178 175 168
73 126 50 339 66 126 155 138 110 133 144 164 155 216 261 255 301 284 224 156 337 321 337 11 22 54 115 133 120 109 112 129 152 161 153 146 148 148 150 174 181 167 169 185 193 200 204 209 216 213 199 201 204 196 188 189 191 192 188 182 183 187 190 196 194 192 199 202 207 225 234 240 249 263 277 274 249 210 188 184 190 202 205 200 201 204 200 190 186 195 198 193 188 189 189 181 172
127 140 124 163 172 126 130 266 300 105 129 162 156 191 262 296 339 304 198 137 22 2 45 43 12 15 55 96 112 111 108 114 122 128 131 125 127 139 140 157 170 158 155 176 187 199 204 209 215 210 193 198 202 197 192 193 193 193 190 185 186 188 189 190 193 198 204 208 219 231 235 244 257 267 261 216 192 188 185 181 183 193 203 207 210 213 217 220 210 200 201 201 197 196 198 190 178